Terminal Aerodrome Forecast
Issued by NWS

Home | Current Version | Previous Version | Text Only | Print | Product List | Glossary On
Versions: 1 2 3 4 5 6 7 8 9 10 11 12 13 14 15
000
FTUS45 KVEF 201100
TAFEED
TAF
KEED 201120Z 2012/2112 VRB05KT P6SM SKC
     FM202000 17007KT P6SM FEW140
     FM210300 21006KT P6SM FEW140=

USA.gov is the U.S. government's official web portal to all federal, state and local government web resources and services.